Regional Weather Roundup
Issued by NWS Memphis, TN

Home | Current Version | Previous Version | Text Only | Print | Product List | Glossary On
Versions: 1 2 3 4 5 6 7 8 9 10 11 12 13 14 15 16 17 18 19 20 21 22 23 24 25 26 27 28 29 30 31 32 33 34 35 36 37 38 39 40 41 42 43 44 45 46 47 48 49 50
000
ASUS44 KMEG 252100
RWRMEG
MEMPHIS CWA HOURLY WEATHER ROUNDUP
NATIONAL WEATHER SERVICE MEMPHIS TN
400 PM CDT TUE JUL 25 2017

...WEST TENNESSEE...

CITY           SKY/WX    TMP DP  RH WIND       PRES   REMARKS
MEMPHIS INTL   MOSUNNY   96  76  52 SW6       30.05F HX 109
NWS MEMPHIS      N/A     92 N/A N/A MISG        N/A
JACKSON        MOSUNNY   95  74  50 VRB6      30.06F HX 105


...EASTERN ARKANSAS...

CITY           SKY/WX    TMP DP  RH WIND       PRES   REMARKS
JONESBORO      TSTM      78  75  90 SE28G38   30.02F FOG
WEST MEMPHIS   SUNNY     93  75  55 CALM      30.03F HX 104
BATESVILLE     CLOUDY    90  72  55 CALM      30.05F HX  96
WALNUT RIDGE   PTSUNNY   95  73  49 E6        30.01F HX 105
BLYTHEVILLE    MOSUNNY   93  74  53 CALM      30.05F HX 103
SEARCY         CLOUDY    95  80  61 S6        30.05  HX 114
STUTTGART      SUNNY     97  68  38 CALM      30.06S HX 101
PINE BLUFF     SUNNY     93  75  55 SW7       30.05F HX 104
MONTICELLO     PTSUNNY   95  73  48 W8        30.05F HX 104


...NORTH MISSISSIPPI...

CITY           SKY/WX    TMP DP  RH WIND       PRES   REMARKS
TUPELO         MOSUNNY   94  70  45 SE5       30.05F HX 100
TUNICA           N/A     91  73  55 SW3       30.05F HX 100
CLARKSDALE       N/A     97  77  52 VRB6      30.04F HX 112
GREENWOOD      CLOUDY    86  79  79 S3        30.08R HX  99
COLUMBUS       MOSUNNY   91  77  62 SE3       30.06F HX 105
STARKVILLE     MOSUNNY   90  73  58 W3        30.08F HX  98
GOLDEN TRIANGL PTSUNNY   93  72  49 SW6       30.04F HX 100


...SOUTHEAST MISSOURI...

CITY           SKY/WX    TMP DP  RH WIND       PRES   REMARKS
KENNETT        MOSUNNY   93  77  59 VRB6      30.02F HX 107
MALDEN         PTSUNNY   97  75  49 S7        30.05F HX 109
WEST PLAINS    MOSUNNY   93  66  40 S10       30.08F HX  96
POPLAR BLUFF   MOSUNNY   92  75  57 SW6       30.03F HX 103
CAPE GIRARDEAU CLOUDY    88  75  65 SE6       30.06F HX  97


...NORTHWEST ALABAMA...

CITY           SKY/WX    TMP DP  RH WIND       PRES   REMARKS
MUSCLE SHOALS  SUNNY     94  70  45 SW7       30.07F HX 100


...MIDDLE TENNESSEE...

CITY           SKY/WX    TMP DP  RH WIND       PRES   REMARKS
NASHVILLE      CLOUDY    88  69  53 SW9       30.08S HX  92
CLARKSVILLE    CLOUDY    87  73  62 CALM      30.08S HX  94


...WESTERN KENTUCKY...

CITY           SKY/WX    TMP DP  RH WIND       PRES   REMARKS
PADUCAH        CLOUDY    76  73  91 S6        30.07F THUNDER
FORT CAMPBELL  CLOUDY    87  75  68 NW5       30.08F HX  96


...CENTRAL ARKANSAS...

CITY           SKY/WX    TMP DP  RH WIND       PRES   REMARKS
LITTLE ROCK    MOSUNNY   94  74  52 S7        30.04F HX 104


SKY/WX REPORTED AS FAIR MEANS FEW OR NO CLOUDS BELOW
12 THOUSAND FEET.





USA.gov is the U.S. government's official web portal to all federal, state and local government web resources and services.